Location: Quaker Farms
(41.4276°N, 73.1557°W)
Time: 00:07:20
(UTC+00:00)

Vanguard 1 - Pass Details

Date: 14 June 2021
Orbit: 651 x 3831 km, 34.2° (Epoch: 28 July)

Event Time Altitude Azimuth Distance (km) Brightness Sun altitude
Rises 07:17:16 0° 271° (W) 6,797 14.0 -17.2°
Reaches altitude 10° 07:22:36 10° 268° (W) 5,283 13.4 -16.6°
Maximum altitude 07:35:39 52° 198° (SSW) 1,929 11.1 -15.1°
Drops below altitude 10° 07:42:46 10° 124° (ESE) 2,971 12.6 -14.3°
Sets 07:44:58 0° 118° (ESE) 3,683 13.2 -14.0°
